Weather History for KMCB - September, 2012

Change the Weather History Date:

Saturday, September 29, 2012

  Actual Average Record
Temperature  
Mean Temperature 72 °F -  
Max Temperature 75 °F 83 °F 95 °F (1953)
Min Temperature 66 °F 60 °F 39 °F (1967)
Cooling Degree Days 6    
Growing Degree Days 22 (Base 50)    
Moisture  
Dew Point 71 °F    
Average Humidity 97    
Maximum Humidity 100    
Minimum Humidity 94    
Precipitation  
Precipitation 2.25 in - - ()
Sea Level Pressure  
Sea Level Pressure 29.94 in    
Wind  
Wind Speed 2 mph (ESE)    
Max Wind Speed 9 mph    
Max Gust Speed -    
Visibility 6 miles    
Events Fog    
Averages and records for this station are not official NWS values.
T = Trace of Precipitation, MM = Missing Value Source: NWS Daily Summary

Daily Weather History Graph

Daily Weather History Graph

Search for Another Location

Airport or City:

Trip Planner

Search our weather history database for the weather conditions in past years. The results will help you decide how hot, cold, wet, or windy it might be!

Date:

Astronomy

Sep. 29, 2012 Rise Set
Actual Time 6:54 AM CDT 6:48 PM CDT
Civil Twilight 6:30 AM CDT 7:13 PM CDT
Nautical Twilight 6:02 AM CDT 7:41 PM CDT
Astronomical Twilight 5:34 AM CDT 8:09 PM CDT
Moon 6:24 PM CDT (9/29) 6:24 AM CDT (9/29)
Length of Visible Light 12h 42m
Length of Day
11h 54m
Full, 100% of the Moon is Illuminated
Sep 29
Full
Sep 29
Full
Oct 8
Last Quarter
Oct 15
New
Oct 21
First Quarter

Hourly Weather History & Observations

Time (CDT) Temp. Dew Point Humidity Pressure Visibility Wind Dir Wind Speed Gust Speed Precip Events Conditions
12:53 AM 71.1 °F 70.0 °F 96% 29.99 in 8.0 mi Calm Calm - N/A   Clear
1:53 AM 71.1 °F 70.0 °F 96% 29.98 in 10.0 mi Calm Calm - N/A   Clear
2:53 AM 71.1 °F 70.0 °F 96% 29.98 in 8.0 mi Calm Calm - N/A   Partly Cloudy
3:24 AM 71.6 °F 69.8 °F 94% 29.99 in 10.0 mi Calm Calm - N/A   Scattered Clouds
3:33 AM 71.6 °F 69.8 °F 94% 29.99 in 10.0 mi Calm Calm - N/A   Mostly Cloudy
3:53 AM 71.1 °F 70.0 °F 96% 29.97 in 10.0 mi Calm Calm - N/A   Overcast
4:03 AM 71.6 °F 69.8 °F 94% 29.98 in 10.0 mi Calm Calm - N/A   Overcast
4:45 AM 69.8 °F 69.8 °F 100% 29.97 in 10.0 mi Calm Calm - N/A   Overcast
4:53 AM 70.0 °F 70.0 °F 100% 29.95 in 10.0 mi Calm Calm - N/A   Overcast
5:09 AM 71.6 °F 69.8 °F 94% 29.97 in 10.0 mi Calm Calm - N/A   Overcast
5:53 AM 71.1 °F 70.0 °F 96% 29.96 in 9.0 mi Calm Calm - N/A   Overcast
6:53 AM 71.1 °F 70.0 °F 96% 29.96 in 7.0 mi Calm Calm - N/A   Overcast
7:30 AM 71.6 °F 69.8 °F 94% 29.97 in 2.0 mi Calm Calm - N/A   Overcast
7:40 AM 71.6 °F 69.8 °F 94% 29.98 in 1.5 mi Calm Calm - N/A   Overcast
7:53 AM 71.1 °F 70.0 °F 96% 29.97 in 0.8 mi Calm Calm - N/A   Overcast
8:32 AM 71.6 °F 71.6 °F 100% 29.99 in 1.2 mi Calm Calm - N/A   Overcast
8:46 AM 71.6 °F 71.6 °F 100% 29.99 in 0.8 mi NE 3.5 mph - N/A   Overcast
8:53 AM 72.0 °F 71.1 °F 97% 29.97 in 0.8 mi Calm Calm - N/A   Overcast
9:11 AM 71.6 °F 71.6 °F 100% 29.99 in 1.2 mi Calm Calm - N/A   Overcast
9:32 AM 73.4 °F 71.6 °F 94% 29.99 in 3.0 mi Calm Calm - N/A   Overcast
9:53 AM 73.0 °F 73.0 °F 100% 29.98 in 5.0 mi Variable 3.5 mph - N/A   Overcast
10:35 AM 73.4 °F 73.4 °F 100% 29.99 in 5.0 mi Calm Calm - 0.01 in   Overcast
10:53 AM 75.0 °F 73.0 °F 94% 29.96 in 2.5 mi East 3.5 mph - 0.02 in   Overcast
11:04 AM 75.2 °F 73.4 °F 94% 29.98 in 4.0 mi Calm Calm - 0.01 in   Overcast
11:40 AM 75.2 °F 73.4 °F 94% 29.97 in 7.0 mi Calm Calm - 0.01 in   Overcast
11:53 AM 75.0 °F 73.0 °F 94% 29.95 in 7.0 mi Calm Calm - 0.01 in   Overcast
11:58 AM 75.2 °F 73.4 °F 94% 29.97 in 1.8 mi SE 5.8 mph - 0.08 in   Overcast
12:05 PM 73.4 °F 73.4 °F 100% 29.97 in 0.2 mi Variable 4.6 mph - 0.46 in Fog Fog
12:16 PM 71.6 °F 71.6 °F 100% 29.96 in 0.5 mi East 6.9 mph - 0.73 in Fog Fog
12:25 PM 73.4 °F 71.6 °F 94% 29.96 in 1.2 mi East 4.6 mph - 0.82 in   Overcast
12:39 PM 73.4 °F 71.6 °F 94% 29.95 in 0.8 mi ESE 4.6 mph - 1.02 in   Overcast
12:53 PM 71.1 °F 71.1 °F 100% 29.95 in 0.5 mi South 9.2 mph - 1.46 in Fog Fog
12:57 PM 71.6 °F 71.6 °F 100% 29.96 in 0.2 mi SSE 6.9 mph - 0.20 in Fog Fog
1:07 PM 71.6 °F 71.6 °F 100% 29.95 in 0.5 mi Calm Calm - 0.46 in Fog Fog
1:18 PM 71.6 °F 71.6 °F 100% 29.95 in 2.0 mi ESE 3.5 mph - 0.50 in   Overcast
1:26 PM 71.6 °F 71.6 °F 100% 29.94 in 4.0 mi SSE 3.5 mph - 0.51 in   Overcast
1:53 PM 72.0 °F 71.1 °F 97% 29.92 in 7.0 mi SSE 4.6 mph - 0.52 in   Overcast
2:02 PM 71.6 °F 71.6 °F 100% 29.93 in 7.0 mi SE 3.5 mph - 0.01 in   Overcast
2:11 PM 71.6 °F 71.6 °F 100% 29.92 in 4.0 mi Calm Calm - 0.02 in   Overcast
2:53 PM 73.0 °F 72.0 °F 96% 29.89 in 6.0 mi SE 3.5 mph - 0.03 in   Overcast
3:46 PM 71.6 °F 71.6 °F 100% 29.89 in 8.0 mi ESE 6.9 mph - 0.03 in   Overcast
3:53 PM 72.0 °F 72.0 °F 100% 29.88 in 8.0 mi ESE 4.6 mph - 0.03 in   Overcast
4:07 PM 71.6 °F 71.6 °F 100% 29.89 in 9.0 mi Variable 4.6 mph - N/A   Overcast
4:53 PM 72.0 °F 72.0 °F 100% 29.86 in 7.0 mi Variable 3.5 mph - 0.02 in   Overcast
5:53 PM 72.0 °F 71.1 °F 97% 29.86 in 9.0 mi SE 4.6 mph - 0.04 in   Overcast
6:53 PM 71.1 °F 71.1 °F 100% 29.86 in 5.0 mi SE 5.8 mph - 0.05 in   Overcast
7:53 PM 71.1 °F 71.1 °F 100% 29.86 in 10.0 mi Variable 4.6 mph - 0.05 in   Overcast
8:53 PM 71.1 °F 71.1 °F 100% 29.88 in 10.0 mi SSE 5.8 mph - N/A   Overcast
9:53 PM 71.1 °F 71.1 °F 100% 29.88 in 10.0 mi East 4.6 mph - 0.01 in   Overcast
10:53 PM 69.1 °F 68.0 °F 96% 29.88 in 7.0 mi NE 4.6 mph - N/A   Overcast
11:06 PM 68.0 °F 66.2 °F 94% 29.89 in 6.0 mi ENE 6.9 mph - N/A   Overcast
11:53 PM 66.9 °F 66.9 °F 100% 29.86 in 10.0 mi ENE 4.6 mph - 0.01 in   Overcast